| time (UTC) | temp F | wind direction | speed knots | gust knots | rain 1hr in | rain 24hr in | rain mn in | humidity % | barometer mb |
| 20260508220059 | 42 | 315 | 1.7 | 5.2 | 0.00 | 0.01 | 0.00 | 93 | 1002.6 |
| 20260508214558 | 41 | 321 | 2.6 | 6.1 | 0.00 | 0.08 | 0.00 | 92 | 1002.4 |
| 20260508213057 | 42 | 304 | 3.5 | 7.8 | 0.00 | 0.08 | 0.00 | 90 | 1002.3 |
| 20260508211601 | 43 | 317 | 4.3 | 8.7 | 0.00 | 0.08 | 0.00 | 89 | 1002.4 |
| 20260508210057 | 43 | 359 | 3.5 | 7.8 | 0.00 | 0.08 | 0.00 | 90 | 1002.1 |
| 20260508204556 | 44 | 10 | 2.6 | 7.8 | 0.00 | 0.40 | 0.00 | 90 | 1002.0 |
| 20260508203058 | 43 | 345 | 4.3 | 8.7 | 0.00 | 0.40 | 0.00 | 90 | 1001.8 |
| 20260508201555 | 44 | 307 | 4.3 | 7.0 | 0.00 | 0.40 | 0.00 | 89 | 1001.7 |
| 20260508200105 | 44 | 303 | 2.6 | 8.7 | 0.00 | 0.40 | 0.00 | 89 | 1001.4 |
| 20260508194601 | 44 | 329 | 5.2 | 8.7 | 0.00 | 0.56 | 0.00 | 89 | 1001.4 |
| 20260508193056 | 44 | 350 | 5.2 | 9.6 | 0.00 | 0.56 | 0.00 | 90 | 1001.2 |
| 20260508191556 | 44 | 332 | 3.5 | 9.6 | 0.00 | 0.56 | 0.00 | 90 | 1001.3 |
| 20260508190052 | 44 | 345 | 5.2 | 9.6 | 0.00 | 0.56 | 0.00 | 89 | 1001.0 |
| 20260508184553 | 44 | 338 | 7.0 | 12.2 | 0.00 | 0.61 | 0.00 | 89 | 1000.9 |
| 20260508183050 | 45 | 336 | 3.5 | 8.7 | 0.00 | 0.61 | 0.00 | 89 | 1001.2 |
| 20260508181551 | 45 | 15 | 4.3 | 8.7 | 0.00 | 0.61 | 0.00 | 91 | 1001.5 |
| 20260508180049 | 45 | 317 | 6.1 | 10.4 | 0.00 | 0.61 | 0.00 | 91 | 1001.7 |
| 20260508174558 | 45 | 344 | 4.3 | 9.6 | 0.00 | 0.61 | 0.00 | 92 | 1001.6 |
| 20260508173047 | 45 | 318 | 5.2 | 10.4 | 0.00 | 0.61 | 0.00 | 93 | 1001.6 |
| 20260508171546 | 43 | 309 | 4.3 | 8.7 | 0.00 | 0.61 | 0.00 | 94 | 1001.6 |
| 20260508170050 | 43 | 332 | 6.1 | 8.7 | 0.00 | 0.61 | 0.00 | 93 | 1002.0 |
| 20260508164546 | 43 | 341 | 2.6 | 5.2 | 0.00 | 0.61 | 0.00 | 93 | 1001.7 |
| 20260508163043 | 43 | 344 | 3.5 | 7.0 | 0.00 | 0.61 | 0.00 | 93 | 1001.7 |
| 20260508161547 | 43 | 313 | 2.6 | 5.2 | 0.00 | 0.61 | 0.00 | 93 | 1001.8 |
| 20260508160049 | 43 | 324 | 3.5 | 8.7 | 0.00 | 0.61 | 0.00 | 92 | 1001.6 |
| 20260508154547 | 43 | 340 | 5.2 | 11.3 | 0.00 | 0.61 | 0.00 | 93 | 1001.5 |
| 20260508153041 | 43 | 347 | 3.5 | 7.8 | 0.00 | 0.61 | 0.00 | 93 | 1002.0 |
| 20260508151540 | 43 | 308 | 4.3 | 8.7 | 0.00 | 0.61 | 0.00 | 93 | 1001.7 |
| 20260508150040 | 44 | 1 | 5.2 | 11.3 | 0.00 | 0.61 | 0.00 | 94 | 1001.6 |
| 20260508144639 | 43 | 302 | 4.3 | 9.6 | 0.00 | 0.61 | 0.00 | 95 | 1001.9 |
| 20260508143049 | 43 | 354 | 4.3 | 9.6 | 0.00 | 0.61 | 0.00 | 95 | 1001.9 |
| 20260508141537 | 43 | 301 | 4.3 | 9.6 | 0.00 | 0.61 | 0.00 | 96 | 1002.3 |
| 20260508140039 | 42 | 324 | 7.0 | 11.3 | 0.00 | 0.61 | 0.00 | 97 | 1002.2 |
| 20260508134540 | 43 | 338 | 5.2 | 8.7 | 0.00 | 0.61 | 0.00 | 98 | 1002.4 |
| 20260508133036 | 42 | 334 | 7.0 | 11.3 | 0.00 | 0.61 | 0.00 | 98 | 1002.4 |
| 20260508131538 | 42 | 324 | 5.2 | 8.7 | 0.00 | 0.61 | 0.00 | 99 | 1002.2 |
| 20260508130046 | 42 | 317 | 4.3 | 9.6 | 0.00 | 0.61 | 0.00 | 99 | 1002.2 |
| 20260508124536 | 41 | 344 | 5.2 | 9.6 | 0.00 | 0.61 | 0.00 | 99 | 1002.1 |
| 20260508123037 | 42 | 344 | 4.3 | 11.3 | 0.00 | 0.61 | 0.00 | 99 | 1001.9 |
| 20260508121530 | 42 | 330 | 6.1 | 11.3 | 0.00 | 0.61 | 0.00 | 99 | 1002.4 |
| 20260508120029 | 41 | 330 | 5.2 | 9.6 | 0.00 | 0.61 | 0.00 | 99 | 1002.3 |
| 20260508114528 | 41 | 344 | 5.2 | 7.8 | 0.00 | 0.61 | 0.00 | 99 | 1002.2 |
| 20260508113027 | 41 | 340 | 5.2 | 8.7 | 0.00 | 0.61 | 0.00 | 100 | 1002.1 |
| 20260508111525 | 40 | 324 | 2.6 | 7.0 | 0.00 | 0.61 | 0.00 | 99 | 1002.1 |
| 20260508110027 | 40 | 339 | 1.7 | 7.0 | 0.00 | 0.61 | 0.00 | 100 | 1002.2 |
| 20260508104526 | 40 | 352 | 2.6 | 5.2 | 0.00 | 0.61 | 0.00 | 99 | 1002.7 |
| 20260508103021 | 40 | 353 | 1.7 | 3.5 | 0.00 | 0.61 | 0.00 | 99 | 1002.5 |
| 20260508101522 | 39 | 355 | 0.0 | 1.7 | 0.00 | 0.61 | 0.00 | 99 | 1002.4 |
| 20260508100014 | 39 | 355 | 0.9 | 4.3 | 0.00 | 0.61 | 0.00 | 99 | 1002.3 |
| 20260508094526 | 39 | 3 | 0.0 | 2.6 | 0.00 | 0.61 | 0.00 | 99 | 1001.8 |
| 20260508093012 | 39 | 3 | 0.9 | 2.6 | 0.00 | 0.61 | 0.00 | 99 | 1002.2 |
| 20260508091507 | 39 | 3 | 1.7 | 4.3 | 0.00 | 0.61 | 0.00 | 99 | 1002.2 |
| 20260508090004 | 39 | 1 | 0.9 | 5.2 | 0.00 | 0.61 | 0.00 | 99 | 1001.9 |
| 20260508084502 | 39 | 351 | 0.9 | 2.6 | 0.00 | 0.61 | 0.00 | 99 | 1001.9 |
| 20260508083100 | 39 | 348 | 0.0 | 1.7 | 0.00 | 0.61 | 0.00 | 99 | 1001.8 |
| 20260508081611 | 39 | 347 | 0.9 | 2.6 | 0.00 | 0.61 | 0.00 | 99 | 1001.7 |
| 20260508080058 | 39 | 349 | 0.9 | 3.5 | 0.00 | 0.61 | 0.00 | 99 | 1001.4 |
| 20260508074557 | 40 | 346 | 1.7 | 4.3 | 0.00 | 0.61 | 0.00 | 99 | 1001.5 |
| 20260508073106 | 40 | 359 | 1.7 | 4.3 | 0.00 | 0.61 | 0.00 | 99 | 1001.6 |
| 20260508071612 | 40 | 351 | 0.0 | 3.5 | 0.00 | 0.61 | 0.00 | 99 | 1001.7 |
| 20260508070059 | 41 | 15 | 1.7 | 5.2 | 0.00 | 0.61 | 0.00 | 99 | 1001.5 |
| 20260508064547 | 42 | 336 | 1.7 | 7.0 | 0.00 | 0.61 | 0.00 | 99 | 1001.5 |
| 20260508063045 | 42 | 336 | 1.7 | 4.3 | 0.00 | 0.61 | 0.00 | 99 | 1001.7 |
| 20260508061545 | 42 | 332 | 1.7 | 3.5 | 0.00 | 0.61 | 0.00 | 99 | 1001.5 |
| 20260508060044 | 43 | 352 | 1.7 | 3.5 | 0.00 | 0.61 | 0.00 | 99 | 1001.4 |
| 20260508054545 | 44 | 352 | 1.7 | 3.5 | 0.00 | 0.61 | 0.00 | 99 | 1001.2 |
| 20260508053041 | 44 | 352 | 0.0 | 0.0 | 0.00 | 0.61 | 0.00 | 99 | 1001.1 |
| 20260508051540 | 45 | 352 | 0.0 | 0.0 | 0.00 | 0.61 | 0.00 | 99 | 1001.1 |
| 20260508050032 | 46 | 352 | 0.9 | 3.5 | 0.00 | 0.61 | 0.00 | 99 | 1001.1 |
| 20260508044527 | 47 | 350 | 1.7 | 5.2 | 0.00 | 0.61 | 0.00 | 99 | 1001.3 |
| 20260508043025 | 48 | 286 | 1.7 | 6.1 | 0.00 | 0.61 | 0.00 | 100 | 1001.4 |
| 20260508041522 | 47 | 207 | 0.0 | 0.0 | 0.00 | 0.61 | 0.00 | 100 | 1001.6 |
| 20260508040028 | 47 | 207 | 0.0 | 0.0 | 0.00 | 0.61 | 0.00 | 100 | 1001.7 |
| 20260508034520 | 47 | 207 | 0.0 | 0.0 | 0.00 | 0.61 | 0.00 | 100 | 1001.7 |
| 20260508033016 | 47 | 207 | 0.0 | 0.0 | 0.00 | 0.61 | 0.00 | 99 | 1001.7 |
| 20260508031516 | 47 | 207 | 0.0 | 2.6 | 0.00 | 0.61 | 0.00 | 99 | 1001.6 |
| 20260508030022 | 47 | 207 | 0.0 | 0.0 | 0.00 | 0.61 | 0.00 | 99 | 1001.7 |
| 20260508024516 | 46 | 211 | 0.0 | 4.3 | 0.00 | 0.61 | 0.61 | 99 | 1001.5 |
| 20260508023010 | 46 | 188 | 0.9 | 3.5 | 0.00 | 0.61 | 0.61 | 99 | 1001.4 |
| 20260508021550 | 46 | 199 | 1.7 | 4.3 | 0.00 | 0.61 | 0.61 | 99 | 1001.4 |
| 20260508020104 | 46 | 178 | 1.7 | 7.8 | 0.00 | 0.61 | 0.61 | 99 | 1001.7 |
| 20260508014556 | 46 | 206 | 3.5 | 6.1 | 0.00 | 0.61 | 0.61 | 99 | 1001.5 |
| 20260508013059 | 46 | 209 | 2.6 | 7.0 | 0.00 | 0.61 | 0.61 | 99 | 1001.3 |
| 20260508011547 | 47 | 193 | 3.5 | 7.8 | 0.00 | 0.61 | 0.61 | 99 | 1001.6 |
| 20260508010045 | 47 | 174 | 2.6 | 8.7 | 0.00 | 0.61 | 0.61 | 99 | 1002.0 |
| 20260508004544 | 47 | 177 | 4.3 | 9.6 | 0.00 | 0.61 | 0.61 | 99 | 1001.9 |
| 20260508003045 | 47 | 168 | 3.5 | 7.8 | 0.00 | 0.61 | 0.61 | 99 | 1001.8 |
| 20260508001551 | 48 | 216 | 5.2 | 7.8 | 0.00 | 0.61 | 0.61 | 99 | 1001.8 |
| 20260508000042 | 47 | 188 | 3.5 | 7.8 | 0.00 | 0.61 | 0.61 | 99 | 1002.2 |
| 20260507234542 | 47 | 193 | 3.5 | 12.2 | 0.00 | 0.61 | 0.61 | 99 | 1002.2 |
| 20260507233042 | 47 | 190 | 4.3 | 7.8 | 0.01 | 0.61 | 0.61 | 99 | 1002.5 |
| 20260507231540 | 47 | 182 | 7.0 | 13.0 | 0.01 | 0.61 | 0.61 | 99 | 1002.4 |
| 20260507230040 | 47 | 163 | 6.1 | 17.4 | 0.01 | 0.61 | 0.61 | 99 | 1002.4 |
| 20260507224540 | 48 | 145 | 8.7 | 14.8 | 0.01 | 0.61 | 0.61 | 98 | 1002.7 |
| 20260507223039 | 47 | 158 | 9.6 | 16.5 | 0.00 | 0.61 | 0.61 | 99 | 1002.3 |
| 20260507221538 | 47 | 187 | 7.0 | 12.2 | 0.02 | 0.61 | 0.61 | 98 | 1002.9 |